Weather History for Chignik, AK

Change the Weather History Date:

Tuesday, January 14, 2014

  Actual Average Record
Temperature  
Mean Temperature 34 °F -  
Max Temperature 37 °F 33 °F 44 °F (2002)
Min Temperature 32 °F 26 °F 15 °F (1998)
Degree Days  
Heating Degree Days 30    
Moisture  
Dew Point 26 °F    
Average Humidity 71    
Maximum Humidity 87    
Minimum Humidity 45    
Precipitation  
Precipitation 0.16 in - - ()
Sea Level Pressure  
Sea Level Pressure 29.17 in    
Wind  
Wind Speed 16 mph (SW)    
Max Wind Speed 26 mph    
Max Gust Speed 54 mph    
Visibility 9 miles    
Events      
Averages and records for this station are not official NWS values.
T = Trace of Precipitation, MM = Missing Value Source: NWS Daily Summary

Daily Weather History Graph

Daily Weather History Graph

Search for Another Location

Airport:

Trip Planner

Search our weather history database for the weather conditions in past years. The results will help you decide how hot, cold, wet, or windy it might be!

Date:

Astronomy

Jan. 14, 2014 Rise Set
Actual Time 9:57 AM AKST 5:28 PM AKST
Civil Twilight 9:12 AM AKST 6:13 PM AKST
Nautical Twilight 8:24 AM AKST 7:01 PM AKST
Astronomical Twilight 7:39 AM AKST 7:46 PM AKST
Moon 4:51 PM AKST (1/14) 8:33 AM AKST (1/14)
Length of Visible Light 9h 01m
Length of Day
7h 31m
Waxing Gibbous, 98% of the Moon is Illuminated
Jan 14
Waxing Gibbous
Jan 15
Full
Jan 23
Last Quarter
Jan 30
New
Feb 6
First Quarter

Hourly Weather History & Observations

Time (AKST) Temp. Windchill Dew Point Humidity Pressure Visibility Wind Dir Wind Speed Gust Speed Precip Events Conditions
12:16 AM 35.6 °F 26.6 °F 30.2 °F 81% 28.69 in 10.0 mi West 13.8 mph 21.9 mph 0.03 in   Overcast
12:36 AM 35.6 °F 24.8 °F 30.2 °F 81% 28.71 in 10.0 mi West 19.6 mph 28.8 mph 0.05 in   Overcast
12:56 AM 35.6 °F 24.8 °F 30.2 °F 81% 28.72 in 10.0 mi West 19.6 mph 31.1 mph 0.07 in   Overcast
1:16 AM 35.6 °F 23.4 °F 30.2 °F 81% 28.73 in 10.0 mi West 25.3 mph 34.5 mph 0.01 in   Overcast
1:36 AM 35.6 °F 24.0 °F 30.2 °F 81% 28.75 in 10.0 mi WSW 23.0 mph 26.5 mph 0.03 in   Overcast
1:56 AM 35.6 °F 23.2 °F 28.4 °F 75% 28.76 in 10.0 mi WSW 26.5 mph 40.3 mph 0.05 in   Overcast
2:16 AM 35.6 °F 23.2 °F 30.2 °F 81% 28.78 in 10.0 mi SW 26.5 mph 46.0 mph 0.01 in   Overcast
2:36 AM - - - N/A% 28.80 in 5.0 mi WSW 26.5 mph 54.1 mph 0.01 in   Overcast
2:56 AM 35.6 °F 23.4 °F 30.2 °F 81% 28.83 in 5.0 mi WSW 25.3 mph 38.0 mph 0.01 in   Overcast
3:16 AM 35.6 °F 23.7 °F 30.2 °F 81% 28.85 in 6.0 mi WSW 24.2 mph 33.4 mph N/A   Overcast
3:36 AM 35.6 °F 25.2 °F 28.4 °F 75% 28.88 in 6.0 mi WSW 18.4 mph 32.2 mph N/A   Overcast
3:56 AM 35.6 °F 24.8 °F 28.4 °F 75% 28.90 in 5.0 mi West 19.6 mph 32.2 mph N/A   Overcast
4:16 AM 33.8 °F 21.6 °F 28.4 °F 81% 28.92 in 4.0 mi West 23.0 mph 29.9 mph N/A   Mostly Cloudy
4:36 AM 33.8 °F 22.8 °F 28.4 °F 81% 28.94 in 1.8 mi West 18.4 mph 27.6 mph N/A   Mostly Cloudy
4:56 AM 33.8 °F 21.3 °F 30.2 °F 87% 28.96 in 3.0 mi West 24.2 mph 28.8 mph N/A   Scattered Clouds
5:16 AM 33.8 °F 22.8 °F 30.2 °F 87% 28.98 in 2.5 mi West 18.4 mph 27.6 mph 0.01 in   Mostly Cloudy
5:36 AM 33.8 °F 21.9 °F 30.2 °F 87% 28.99 in 5.0 mi West 21.9 mph 29.9 mph 0.01 in   Mostly Cloudy
5:56 AM 35.6 °F 24.8 °F 30.2 °F 81% 29.00 in 8.0 mi West 19.6 mph 29.9 mph 0.01 in   Overcast
6:16 AM 33.8 °F 21.6 °F 30.2 °F 87% 29.02 in 3.0 mi West 23.0 mph 31.1 mph 0.01 in   Mostly Cloudy
6:36 AM 35.6 °F 24.0 °F 28.4 °F 75% 29.03 in 10.0 mi West 23.0 mph 27.6 mph 0.01 in   Overcast
6:56 AM 35.6 °F 26.6 °F 28.4 °F 75% 29.05 in 10.0 mi West 13.8 mph 25.3 mph 0.02 in   Overcast
7:16 AM 35.6 °F 25.2 °F 26.6 °F 70% 29.07 in 10.0 mi WSW 18.4 mph 26.5 mph N/A   Overcast
7:36 AM 35.6 °F 25.5 °F 26.6 °F 70% 29.08 in 10.0 mi SW 17.3 mph 24.2 mph N/A   Overcast
7:56 AM 35.6 °F 27.5 °F 26.6 °F 70% 29.11 in 10.0 mi SW 11.5 mph 21.9 mph N/A   Overcast
8:16 AM 35.6 °F 26.6 °F 26.6 °F 70% 29.12 in 10.0 mi SSW 13.8 mph - N/A   Overcast
8:36 AM 35.6 °F 28.6 °F 28.4 °F 75% 29.14 in 10.0 mi SW 9.2 mph - N/A   Overcast
8:56 AM 35.6 °F 29.9 °F 26.6 °F 70% 29.15 in 10.0 mi West 6.9 mph - N/A   Overcast
9:16 AM 35.6 °F 32.8 °F 26.6 °F 70% 29.17 in 10.0 mi SE 3.5 mph - N/A   Overcast
9:36 AM 35.6 °F 31.7 °F 28.4 °F 75% 29.18 in 10.0 mi ENE 4.6 mph - N/A   Overcast
9:56 AM 33.8 °F - 26.6 °F 75% 29.20 in 10.0 mi Calm Calm - N/A   Overcast
10:16 AM 35.6 °F 27.5 °F 26.6 °F 70% 29.20 in 10.0 mi SSW 11.5 mph - N/A   Overcast
1:56 PM 37.4 °F 28.2 °F 21.2 °F 52% 29.31 in 10.0 mi South 16.1 mph 26.5 mph N/A   Clear
2:56 PM 37.4 °F 26.1 °F 23.0 °F 56% 29.32 in 10.0 mi SSW 24.2 mph 39.1 mph N/A   Clear
3:16 PM 37.4 °F 26.4 °F 21.2 °F 52% 29.32 in 10.0 mi SSW 23.0 mph 31.1 mph N/A   Clear
3:36 PM 37.4 °F 25.9 °F 23.0 °F 56% 29.33 in 10.0 mi SSW 25.3 mph 33.4 mph N/A   Clear
3:56 PM 37.4 °F 25.6 °F 23.0 °F 56% 29.33 in 10.0 mi SSW 26.5 mph 31.1 mph N/A   Clear
4:16 PM 37.4 °F 27.2 °F 23.0 °F 56% 29.34 in 10.0 mi SW 19.6 mph 28.8 mph N/A   Clear
4:36 PM 37.4 °F 28.5 °F 21.2 °F 52% 29.36 in 10.0 mi SW 15.0 mph 23.0 mph N/A   Clear
4:56 PM 37.4 °F 31.4 °F 17.6 °F 45% 29.37 in 10.0 mi NE 8.1 mph - N/A   Clear
5:16 PM 35.6 °F 29.9 °F 19.4 °F 52% 29.38 in 10.0 mi ESE 6.9 mph - N/A   Clear
5:36 PM 35.6 °F 30.7 °F 23.0 °F 60% 29.39 in 10.0 mi East 5.8 mph - N/A   Clear
5:56 PM 35.6 °F - 23.0 °F 60% 29.40 in 10.0 mi Calm Calm - N/A   Clear
6:16 PM 35.6 °F - 23.0 °F 60% 29.40 in 10.0 mi Calm Calm - N/A   Clear
6:36 PM 33.8 °F 30.8 °F 21.2 °F 60% 29.41 in 10.0 mi South 3.5 mph - N/A   Clear
6:56 PM 33.8 °F - 21.2 °F 60% 29.41 in 10.0 mi Calm Calm - N/A   Clear
7:16 PM 33.8 °F - 24.8 °F 70% 29.41 in 10.0 mi Calm Calm - N/A   Clear
7:36 PM 33.8 °F 30.8 °F 24.8 °F 70% 29.42 in 10.0 mi East 3.5 mph - N/A   Clear
7:56 PM 33.8 °F 27.7 °F 24.8 °F 70% 29.42 in 10.0 mi East 6.9 mph - N/A   Clear
8:16 PM 33.8 °F 29.6 °F 24.8 °F 70% 29.43 in 10.0 mi East 4.6 mph - N/A   Partly Cloudy
8:36 PM 33.8 °F 29.6 °F 26.6 °F 75% 29.43 in 10.0 mi ENE 4.6 mph - N/A   Mostly Cloudy
8:56 PM 33.8 °F - 26.6 °F 75% 29.44 in 10.0 mi Calm Calm - N/A   Overcast
9:16 PM 33.8 °F - 26.6 °F 75% 29.44 in 10.0 mi Calm Calm - N/A   Overcast
9:36 PM 33.8 °F - 24.8 °F 70% 29.45 in 10.0 mi Calm Calm - N/A   Overcast
9:56 PM 32.0 °F - 24.8 °F 75% 29.45 in 10.0 mi Calm Calm - N/A   Overcast
10:16 PM 32.0 °F - 24.8 °F 75% 29.46 in 10.0 mi Calm Calm - N/A   Overcast
10:36 PM 32.0 °F - 24.8 °F 75% 29.46 in 10.0 mi Calm Calm - N/A   Overcast
10:56 PM 32.0 °F 28.7 °F 24.8 °F 75% 29.46 in 10.0 mi NNE 3.5 mph - N/A   Overcast
11:16 PM 32.0 °F - 24.8 °F 75% 29.47 in 10.0 mi Calm Calm - N/A   Overcast
11:36 PM 33.8 °F - 24.8 °F 70% 29.47 in 10.0 mi Calm Calm - N/A   Overcast
11:56 PM 32.0 °F 28.7 °F 24.8 °F 75% 29.47 in 10.0 mi SSE 3.5 mph - N/A   Overcast